Location: Helensbirgh
(56.0153°N, 4.7348°W)
Time: 10:53:33
(UTC+00:00)

Envisat - Pass Details

Date: 16 October 2019
Orbit: 764 x 766 km, 98.1° (Epoch: 21 November)

Event Time Altitude Azimuth Distance (km) Brightness Sun altitude
Rises 19:20:21 0° 171° (S) 3,225 6.2 -9.6°
Reaches altitude 10° 19:22:39 10° 174° (S) 2,303 5.4 -10.0°
Maximum altitude 19:27:43 67° 257° (WSW) 833 3.5 -10.7°
Drops below altitude 10° 19:32:49 10° 341° (NNW) 2,319 5.8 -11.4°
Sets 19:35:09 0° 344° (NNW) 3,249 6.5 -11.7°
